Regional Weather Roundup
Issued by NWS

Home | Current Version | Previous Version | Text Only | Print | Product List | Glossary Off
Versions: 1 2 3 4 5 6 7 8 9 10 11 12 13 14 15 16 17 18 19 20 21 22 23 24 25 26 27

000
ASUS45 KBOU 240107
RWRCO

WEATHER ROUNDUP FOR COLORADO
NATIONAL WEATHER SERVICE DENVER/BOULDER CO
700 PM MDT MON MAY 23 2016

NOTE: "FAIR" INDICATES FEW OR NO CLOUDS BELOW 12000 FEET WITH NO
SIGNIFICANT WEATHER AND/OR OBSTRUCTIONS TO VISIBILITY.

COZ001>005-013-030-031-240200-
...NORTHWEST COLORADO...

CITY           SKY/WX    TMP DP  RH WIND       PRES   REMARKS
CRAIG          PTSUNNY   65  27  23 VRB3      29.89F
HAYDEN         FAIR      57  28  33 S3        29.91F
MEEKER         FAIR      62  29  28 S6        29.88F
MOUNT WERNER   NOT AVBL
STEAMBOAT SPGS FAIR      59  26  29 CALM      29.93S
WALDEN         FAIR      54  23  30 W13       30.00R
$$

COZ006>008-011-240200-
...WEST CENTRAL VALLEYS...

CITY           SKY/WX    TMP DP  RH WIND       PRES   REMARKS
GRAND JUNCTION FAIR      70  19  14 NW13      29.80F
MONTROSE       FAIR      70  13  11 W13       29.87R
EAGLE          PTSUNNY   64  21  19 W7G20     29.91F
RIFLE          PTSUNNY   67  24  19 W10       29.84R
DELTA          FAIR      75  12   9 SW14      29.83S
NUCLA          FAIR      68  12  11 W13       29.92S
$$

COZ017>023-064>068-240200-
...SOUTHWEST COLORADO...

CITY           SKY/WX    TMP DP  RH WIND       PRES   REMARKS
DURANGO        FAIR      67  17  14 W10       29.93F
CORTEZ         FAIR      71  15  11 SW8       29.88F
PAGOSA SPRINGS FAIR      64  15  14 SW9G21    30.00F
TELLURIDE      FAIR      56   9  15 S15G25    30.06S
WOLF CREEK PAS FAIR      39  19  45 S14G29    30.23R
$$

COZ009-010-012-014-032>034-037-058>063-240200-
...CENTRAL COLORADO...

CITY           SKY/WX    TMP DP  RH WIND       PRES   REMARKS
ASPEN          FAIR      60  19  20 SW3       29.94F
BUENA VISTA    FAIR      62  12  14 W6        29.95S
COPPER MTN     NOT AVBL
BERTHOUD PASS  FAIR      34  25  69 W6        30.19S WCI  29
COTTONWOOD PAS FAIR      55   9  15 W8G17     30.06S
GUNNISON       FAIR      61  16  17 W8        29.98R
KREMMLING      PTSUNNY   55  21  26 NW6       29.95R
LEADVILLE      FAIR      51  10  19 W12       30.05S
MONARCH PASS   FAIR      41  18  38 W18G31    30.28S
SALIDA         NOT AVBL
SUNLIGHT       FAIR      45  23  42 CALM      30.13S
WILKERSON PASS CLOUDY    45  25  45 SW8       30.16R
$$

COZ069>075-240200-
...SAN LUIS VALLEY/SANGRE DE CRISTO MOUNTAINS...

CITY           SKY/WX    TMP DP  RH WIND       PRES   REMARKS
ALAMOSA        FAIR      66  19  16 W13       29.96S
LA VETA PASS   FAIR      52  19  28 SW13G23   30.09F
SAGUACHE       FAIR      64  19  17 W10G17    29.97R
$$

COZ035-036-038>040-240200-
...NORTHERN COLORADO FRONT RANGE...

CITY           SKY/WX    TMP DP  RH WIND       PRES   REMARKS
DENVER INTL AP PTSUNNY   58  43  57 NE8       29.88R
DMNS CITY PARK   N/A     61  43  51 N14       29.87R
AURORA         PTSUNNY   60  43  52 NE13      29.88R
FRONT RANGE AP PTSUNNY   59  41  51 NE9       29.89R
ERIE MUNI ARPT FAIR      63  41  44 CALM      29.88R
BOULDER MUN AP FAIR      63  43  48 CALM      29.88S
CENTENNIAL     PTSUNNY   63  38  39 NE9       29.87S
BROOMFIELD     NOT AVBL
FORT COLLINS   FAIR      64  41  42 NE8       29.89S
LONGMONT       FAIR      66  42  41 N7        29.89S
$$

COZ041-046-047-076>085-087-088-240200-
...PIKES PEAK/PALMER DIVIDE AND SOUTHERN FOOTHILLS...

CITY           SKY/WX    TMP DP  RH WIND       PRES   REMARKS
COLO. SPRINGS  FAIR      70  32  24 SE9       29.88S
A. F. ACADEMY  FAIR      59  39  47 NW9       29.89R
SCHRIEVER AFB  NOT AVBL
ELLICOTT       FAIR     N/A N/A N/A SE12      29.86S
FALCON         FAIR      66  31  26 S10       29.92S
FORT CARSON    FAIR      70  37  29 SE5       29.84S
LIMON          CLOUDY    67  38  34 SE5       29.84S
MONUMENT HILL  FAIR      54  39  58 NE7       29.95S
TRINIDAD       FAIR      76  22  13 W14       29.82R
$$

COZ042>045-048>051-090-091-240200-
...NORTHEAST COLORADO...

CITY           SKY/WX    TMP DP  RH WIND       PRES   REMARKS
GREELEY ARPT   FAIR      63  43  48 E8        29.88S
AKRON          FAIR      60  47  61 NE8       29.85F
BURLINGTON     FAIR      72  45  37 SE9       29.81F
WRAY           CLOUDY    68  41  37 NE7       29.82R
STERLING       FAIR      64  45  48 CALM      29.84S
HOLYOKE        FAIR      70  41  35 E8        29.83S
FORT MORGAN    PTSUNNY   62  41  45 E8        29.86R
$$

COZ086-089-092>099-240200-
...SOUTHEAST COLORADO...

CITY           SKY/WX    TMP DP  RH WIND       PRES   REMARKS
PUEBLO         FAIR      79  38  22 E17G26    29.74F
LA JUNTA       FAIR      81  40  23 SE17      29.74S
LAMAR          FAIR      79  52  38 E16       29.71F
SPRINGFIELD      N/A     76  44  32 SE12      29.74F
$$




USA.gov is the U.S. government's official web portal to all federal, state and local government web resources and services.